TimeCST,TemperatureF,Dew PointF,Humidity,Sea Level PressureIn,VisibilityMPH,Wind Direction,Wind SpeedMPH,Gust SpeedMPH,PrecipitationIn,Events,Conditions,WindDirDegrees,DateUTC
12:00 AM,76,73,89,29.93,12,WNW,3.5,,,,Mostly Cloudy,300,2013-03-01 06:00:00
3:00 AM,73,70,87,29.90,12,NNW,11.5,,,,Mostly Cloudy,330,2013-03-01 09:00:00
5:00 AM,71.6,69.8,94,29.92,6.2,NW,9.2,-,N/A,,Mostly Cloudy,320,2013-03-01 11:00:00
6:00 AM,72,68,84,29.94,12,NNW,11.5,,,,Mostly Cloudy,330,2013-03-01 12:00:00
6:00 AM,71.6,68.0,88,29.92,6.2,NNW,11.5,-,N/A,,Mostly Cloudy,330,2013-03-01 12:00:00
7:00 AM,71.6,68.0,88,29.95,6.2,NNW,9.2,-,N/A,,Mostly Cloudy,330,2013-03-01 13:00:00
8:00 AM,71.6,68.0,88,29.98,6.2,NW,9.2,-,N/A,,Mostly Cloudy,310,2013-03-01 14:00:00
9:00 AM,74,69,78,30.00,11,NW,10.4,,,Rain,Light Rain,320,2013-03-01 15:00:00
9:00 AM,71.6,68.0,88,29.99,6.2,NW,10.4,-,N/A,Rain,Light Rain,320,2013-03-01 15:00:00
10:00 AM,73.4,68.0,83,30.00,6.2,NW,10.4,-,N/A,,Mostly Cloudy,320,2013-03-01 16:00:00
11:00 AM,73.4,68.0,83,29.99,6.2,WNW,11.5,-,N/A,,Mostly Cloudy,300,2013-03-01 17:00:00
12:00 PM,74,69,80,29.97,12,WNW,9.2,,,,Partly Cloudy,300,2013-03-01 18:00:00
12:00 PM,75.2,69.8,83,29.97,6.2,WNW,9.2,-,N/A,,Mostly Cloudy,300,2013-03-01 18:00:00
1:00 PM,73.4,69.8,88,29.95,2.5,NW,9.2,-,N/A,Rain,Light Rain Showers,320,2013-03-01 19:00:00
2:00 PM,73.4,69.8,88,29.93,5.0,WNW,9.2,-,N/A,,Mostly Cloudy,300,2013-03-01 20:00:00
3:00 PM,75,69,75,29.91,12,NNW,9.2,,,,Overcast,330,2013-03-01 21:00:00
3:00 PM,75.2,68.0,78,29.90,6.2,NNW,9.2,-,N/A,,Mostly Cloudy,330,2013-03-01 21:00:00
4:00 PM,75.2,68.0,78,29.91,6.2,NW,6.9,-,N/A,Rain,Light Rain Showers,310,2013-03-01 22:00:00
5:00 PM,75.2,69.8,83,29.92,6.2,WNW,4.6,-,N/A,,Mostly Cloudy,300,2013-03-01 23:00:00
6:00 PM,74,70,85,29.94,12,West,4.6,,,,Partly Cloudy,260,2013-03-02 00:00:00
6:00 PM,75.2,69.8,83,29.94,6.2,West,4.6,-,N/A,,Mostly Cloudy,260,2013-03-02 00:00:00
9:00 PM,72,69,85,30.02,12,NW,4.6,,,Rain,Light Rain,320,2013-03-02 03:00:00